Location: ????????
(48.4751°N, 37.6926°E)
Time: 03:18:38
(UTC+00:00)

COSMOS 2406 - Pass Details

Date: 20 January 2021
Orbit: 841 x 866 km, 71.0° (Epoch: 24 February)

Event Time Altitude Azimuth Distance (km) Brightness Sun altitude
Rises 15:42:17 0° 336° (NNW) 3,460 6.5 -15.1°
Reaches altitude 10° 15:45:15 10° 349° (N) 2,519 5.7 -15.6°
Maximum altitude 15:49:56 25° 44° (NE) 1,698 4.3 -16.4°
Enters shadow 15:50:48 24° 57° (ENE) 1,732 4.3 -16.5°
